iso_date,epoch_date,Year,Hour,Min,DOY,POS_DOY,Lat,Lon,BP,Ts,Ta,has_bp,has_ts,has_ta,BuoyID,Buoy_Type,Buoy_Owner,Logistics,Hemisphere
2013-09-15T12:00:00Z,1379246400,2013,12,0,258.5,258.5,84.4327,93.4935,-999.00,-999.00,-999.0,no,no,no,90073,ITP,WHOI,Federov,North
2013-09-15T13:00:28Z,1379250029,2013,13,0,258.542,258.542,84.441,93.5308,-999.00,-999.00,-999.0,no,no,no,90073,ITP,WHOI,Federov,North
2013-09-15T13:59:31Z,1379253571,2013,14,0,258.583,258.583,84.4489,93.5458,-999.00,-999.00,-999.0,no,no,no,90073,ITP,WHOI,Federov,North
2013-09-15T15:00:00Z,1379257200,2013,15,0,258.625,258.625,84.4562,93.5805,-999.00,-999.00,-999.0,no,no,no,90073,ITP,WHOI,Federov,North
2013-09-15T16:00:28Z,1379260829,2013,16,0,258.667,258.667,84.4622,93.6185,-999.00,-999.00,-999.0,no,no,no,90073,ITP,WHOI,Federov,North
2013-09-15T17:00:57Z,1379264458,2013,17,0,258.709,258.709,84.4703,93.6662,-999.00,-999.00,-999.0,no,no,no,90073,ITP,WHOI,Federov,North
2013-09-15T18:01:26Z,1379268086,2013,18,2,258.751,258.751,84.4719,93.6857,-999.00,-999.00,-999.0,no,no,no,90073,ITP,WHOI,Federov,North
2013-09-15T19:00:28Z,1379271629,2013,19,0,258.792,258.792,84.4759,93.7203,-999.00,-999.00,-999.0,no,no,no,90073,ITP,WHOI,Federov,North
2013-09-15T20:00:57Z,1379275258,2013,20,0,258.834,258.834,84.4804,93.7464,-999.00,-999.00,-999.0,no,no,no,90073,ITP,WHOI,Federov,North
2013-09-15T21:00:00Z,1379278800,2013,21,0,258.875,258.875,84.4853,93.7757,-999.00,-999.00,-999.0,no,no,no,90073,ITP,WHOI,Federov,North
2013-09-15T22:00:28Z,1379282429,2013,22,0,258.917,258.917,84.4898,93.813,-999.00,-999.00,-999.0,no,no,no,90073,ITP,WHOI,Federov,North
2013-09-15T23:00:57Z,1379286058,2013,23,0,258.959,258.959,84.4933,93.8464,-999.00,-999.00,-999.0,no,no,no,90073,ITP,WHOI,Federov,North
2013-09-16T00:00:00Z,1379289600,2013,0,0,259.0,259.0,84.498,93.8759,-999.00,-999.00,-999.0,no,no,no,90073,ITP,WHOI,Federov,North
2013-09-16T01:00:28Z,1379293229,2013,1,0,259.042,259.042,84.5055,93.9,-999.00,-999.00,-999.0,no,no,no,90073,ITP,WHOI,Federov,North
2013-09-16T01:59:31Z,1379296771,2013,2,0,259.083,259.083,84.514,93.9317,-999.00,-999.00,-999.0,no,no,no,90073,ITP,WHOI,Federov,North
2013-09-16T03:00:00Z,1379300400,2013,3,0,259.125,259.125,84.5232,93.9709,-999.00,-999.00,-999.0,no,no,no,90073,ITP,WHOI,Federov,North
2013-09-16T04:00:28Z,1379304029,2013,4,0,259.167,259.167,84.5322,94.0144,-999.00,-999.00,-999.0,no,no,no,90073,ITP,WHOI,Federov,North
2013-09-16T04:59:31Z,1379307571,2013,5,0,259.208,259.208,84.5406,94.0558,-999.00,-999.00,-999.0,no,no,no,90073,ITP,WHOI,Federov,North
2013-09-16T06:00:00Z,1379311200,2013,6,0,259.25,259.25,84.5494,94.093,-999.00,-999.00,-999.0,no,no,no,90073,ITP,WHOI,Federov,North
2013-09-16T07:00:28Z,1379314829,2013,7,0,259.292,259.292,84.5575,94.1327,-999.00,-999.00,-999.0,no,no,no,90073,ITP,WHOI,Federov,North
2013-09-16T07:59:31Z,1379318371,2013,8,0,259.333,259.333,84.5648,94.1726,-999.00,-999.00,-999.0,no,no,no,90073,ITP,WHOI,Federov,North
2013-09-16T09:00:00Z,1379322000,2013,9,0,259.375,259.375,84.5719,94.2039,-999.00,-999.00,-999.0,no,no,no,90073,ITP,WHOI,Federov,North
2013-09-16T10:00:28Z,1379325629,2013,10,0,259.417,259.417,84.579,94.2441,-999.00,-999.00,-999.0,no,no,no,90073,ITP,WHOI,Federov,North
2013-09-16T11:02:24Z,1379329344,2013,11,2,259.46,259.46,84.5873,94.2637,-999.00,-999.00,-999.0,no,no,no,90073,ITP,WHOI,Federov,North
2013-09-16T12:00:00Z,1379332800,2013,12,0,259.5,259.5,84.5962,94.2769,-999.00,-999.00,-999.0,no,no,no,90073,ITP,WHOI,Federov,North
2013-09-16T13:00:28Z,1379336429,2013,13,0,259.542,259.542,84.6068,94.2948,-999.00,-999.00,-999.0,no,no,no,90073,ITP,WHOI,Federov,North
2013-09-16T13:59:31Z,1379339971,2013,14,0,259.583,259.583,84.6166,94.3217,-999.00,-999.00,-999.0,no,no,no,90073,ITP,WHOI,Federov,North
2013-09-16T15:00:00Z,1379343600,2013,15,0,259.625,259.625,84.6277,94.3659,-999.00,-999.00,-999.0,no,no,no,90073,ITP,WHOI,Federov,North
2013-09-16T16:00:28Z,1379347229,2013,16,0,259.667,259.667,84.6381,94.4238,-999.00,-999.00,-999.0,no,no,no,90073,ITP,WHOI,Federov,North
2013-09-16T16:59:31Z,1379350771,2013,17,0,259.708,259.708,84.6473,94.4741,-999.00,-999.00,-999.0,no,no,no,90073,ITP,WHOI,Federov,North
2013-09-16T18:01:26Z,1379354486,2013,18,2,259.751,259.751,84.6563,94.5313,-999.00,-999.00,-999.0,no,no,no,90073,ITP,WHOI,Federov,North
2013-09-16T19:00:28Z,1379358029,2013,19,0,259.792,259.792,84.6634,94.5796,-999.00,-999.00,-999.0,no,no,no,90073,ITP,WHOI,Federov,North
2013-09-16T20:00:57Z,1379361658,2013,20,0,259.834,259.834,84.6708,94.6094,-999.00,-999.00,-999.0,no,no,no,90073,ITP,WHOI,Federov,North
2013-09-16T21:00:00Z,1379365200,2013,21,0,259.875,259.875,84.6784,94.6215,-999.00,-999.00,-999.0,no,no,no,90073,ITP,WHOI,Federov,North
2013-09-16T22:00:28Z,1379368829,2013,22,0,259.917,259.917,84.6874,94.6232,-999.00,-999.00,-999.0,no,no,no,90073,ITP,WHOI,Federov,North
2013-09-16T23:00:57Z,1379372458,2013,23,0,259.959,259.959,84.6976,94.6277,-999.00,-999.00,-999.0,no,no,no,90073,ITP,WHOI,Federov,North
2013-09-17T00:00:00Z,1379376000,2013,0,0,260.0,260.0,84.709,94.6366,-999.00,-999.00,-999.0,no,no,no,90073,ITP,WHOI,Federov,North
2013-09-17T01:00:28Z,1379379629,2013,1,0,260.042,260.042,84.7214,94.6576,-999.00,-999.00,-999.0,no,no,no,90073,ITP,WHOI,Federov,North
2013-09-17T02:00:57Z,1379383258,2013,2,0,260.084,260.084,84.7477,94.6888,-999.00,-999.00,-999.0,no,no,no,90073,ITP,WHOI,Federov,North
2013-09-17T03:00:00Z,1379386800,2013,3,0,260.125,260.125,84.7479,94.731,-999.00,-999.00,-999.0,no,no,no,90073,ITP,WHOI,Federov,North
2013-09-17T04:00:28Z,1379390429,2013,4,0,260.167,260.167,84.7609,94.7903,-999.00,-999.00,-999.0,no,no,no,90073,ITP,WHOI,Federov,North
2013-09-17T05:00:57Z,1379394058,2013,5,0,260.209,260.209,84.773,94.8597,-999.00,-999.00,-999.0,no,no,no,90073,ITP,WHOI,Federov,North
2013-09-17T06:00:00Z,1379397600,2013,6,0,260.25,260.25,84.7853,94.9322,-999.00,-999.00,-999.0,no,no,no,90073,ITP,WHOI,Federov,North
2013-09-17T07:00:28Z,1379401229,2013,7,0,260.292,260.292,84.792,95.006,-999.00,-999.00,-999.0,no,no,no,90073,ITP,WHOI,Federov,North
2013-09-17T08:00:57Z,1379404858,2013,8,0,260.334,260.334,84.7975,95.0739,-999.00,-999.00,-999.0,no,no,no,90073,ITP,WHOI,Federov,North
2013-09-17T09:00:00Z,1379408400,2013,9,0,260.375,260.375,84.8098,95.129,-999.00,-999.00,-999.0,no,no,no,90073,ITP,WHOI,Federov,North
2013-09-17T10:00:28Z,1379412029,2013,10,0,260.417,260.417,84.8043,95.1656,-999.00,-999.00,-999.0,no,no,no,90073,ITP,WHOI,Federov,North
2013-09-17T11:00:57Z,1379415658,2013,11,0,260.459,260.459,84.8075,95.2031,-999.00,-999.00,-999.0,no,no,no,90073,ITP,WHOI,Federov,North
2013-09-17T12:00:00Z,1379419200,2013,12,0,260.5,260.5,84.8105,95.2445,-999.00,-999.00,-999.0,no,no,no,90073,ITP,WHOI,Federov,North
2013-09-17T13:00:28Z,1379422829,2013,13,1,260.542,260.542,84.8142,95.2651,-999.00,-999.00,-999.0,no,no,no,90073,ITP,WHOI,Federov,North
2013-09-17T13:59:31Z,1379426371,2013,14,0,260.583,260.583,84.8319,95.2909,-999.00,-999.00,-999.0,no,no,no,90073,ITP,WHOI,Federov,North
2013-09-17T15:00:00Z,1379430000,2013,15,0,260.625,260.625,84.823,95.3144,-999.00,-999.00,-999.0,no,no,no,90073,ITP,WHOI,Federov,North
2013-09-17T16:01:55Z,1379433715,2013,16,1,260.668,260.668,84.8282,95.3454,-999.00,-999.00,-999.0,no,no,no,90073,ITP,WHOI,Federov,North
2013-09-17T16:59:31Z,1379437171,2013,17,0,260.708,260.708,84.8332,95.3818,-999.00,-999.00,-999.0,no,no,no,90073,ITP,WHOI,Federov,North
2013-09-17T18:00:00Z,1379440800,2013,18,0,260.75,260.75,84.8366,95.4321,-999.00,-999.00,-999.0,no,no,no,90073,ITP,WHOI,Federov,North
2013-09-17T19:00:28Z,1379444429,2013,19,0,260.792,260.792,84.8395,95.4484,-999.00,-999.00,-999.0,no,no,no,90073,ITP,WHOI,Federov,North
2013-09-17T19:59:31Z,1379447971,2013,20,0,260.833,260.833,84.8412,95.4795,-999.00,-999.00,-999.0,no,no,no,90073,ITP,WHOI,Federov,North
2013-09-17T21:00:00Z,1379451600,2013,21,0,260.875,260.875,84.8412,95.5039,-999.00,-999.00,-999.0,no,no,no,90073,ITP,WHOI,Federov,North
2013-09-17T22:00:28Z,1379455229,2013,22,0,260.917,260.917,84.8403,95.5137,-999.00,-999.00,-999.0,no,no,no,90073,ITP,WHOI,Federov,North
2013-09-17T23:00:57Z,1379458858,2013,23,0,260.959,260.959,84.8389,95.5037,-999.00,-999.00,-999.0,no,no,no,90073,ITP,WHOI,Federov,North
2013-09-18T00:00:00Z,1379462400,2013,0,0,261.0,261.0,84.8373,95.474,-999.00,-999.00,-999.0,no,no,no,90073,ITP,WHOI,Federov,North
2013-09-18T01:01:55Z,1379466115,2013,1,1,261.043,261.043,84.8367,95.4264,-999.00,-999.00,-999.0,no,no,no,90073,ITP,WHOI,Federov,North
2013-09-18T02:00:57Z,1379469658,2013,2,1,261.084,261.084,84.8379,95.3732,-999.00,-999.00,-999.0,no,no,no,90073,ITP,WHOI,Federov,North
2013-09-18T03:00:00Z,1379473200,2013,3,0,261.125,261.125,84.8401,95.344,-999.00,-999.00,-999.0,no,no,no,90073,ITP,WHOI,Federov,North
2013-09-18T04:00:28Z,1379476829,2013,4,0,261.167,261.167,84.8424,95.3074,-999.00,-999.00,-999.0,no,no,no,90073,ITP,WHOI,Federov,North
2013-09-18T05:00:57Z,1379480458,2013,5,0,261.209,261.209,84.8444,95.2924,-999.00,-999.00,-999.0,no,no,no,90073,ITP,WHOI,Federov,North
2013-09-18T06:00:00Z,1379484000,2013,6,0,261.25,261.25,84.8473,95.2877,-999.00,-999.00,-999.0,no,no,no,90073,ITP,WHOI,Federov,North
2013-09-18T07:00:28Z,1379487629,2013,7,0,261.292,261.292,84.8495,95.2986,-999.00,-999.00,-999.0,no,no,no,90073,ITP,WHOI,Federov,North
2013-09-18T08:00:57Z,1379491258,2013,8,0,261.334,261.334,84.8495,95.32,-999.00,-999.00,-999.0,no,no,no,90073,ITP,WHOI,Federov,North
2013-09-18T09:00:00Z,1379494800,2013,9,0,261.375,261.375,84.8486,95.3311,-999.00,-999.00,-999.0,no,no,no,90073,ITP,WHOI,Federov,North
2013-09-18T10:00:28Z,1379498429,2013,10,0,261.417,261.417,84.8478,95.3319,-999.00,-999.00,-999.0,no,no,no,90073,ITP,WHOI,Federov,North
2013-09-18T11:00:57Z,1379502058,2013,11,0,261.459,261.459,84.8474,95.3211,-999.00,-999.00,-999.0,no,no,no,90073,ITP,WHOI,Federov,North
2013-09-18T12:00:00Z,1379505600,2013,12,0,261.5,261.5,84.8479,95.3048,-999.00,-999.00,-999.0,no,no,no,90073,ITP,WHOI,Federov,North
2013-09-18T13:00:28Z,1379509229,2013,13,0,261.542,261.542,84.8489,95.2878,-999.00,-999.00,-999.0,no,no,no,90073,ITP,WHOI,Federov,North
2013-09-18T14:00:57Z,1379512858,2013,14,0,261.584,261.584,84.8521,95.2638,-999.00,-999.00,-999.0,no,no,no,90073,ITP,WHOI,Federov,North
2013-09-18T15:00:00Z,1379516400,2013,15,0,261.625,261.625,84.856,95.2574,-999.00,-999.00,-999.0,no,no,no,90073,ITP,WHOI,Federov,North
2013-09-18T16:01:55Z,1379520115,2013,16,1,261.668,261.668,84.8611,95.2729,-999.00,-999.00,-999.0,no,no,no,90073,ITP,WHOI,Federov,North
2013-09-18T16:59:31Z,1379523571,2013,17,0,261.708,261.708,84.8737,95.3074,-999.00,-999.00,-999.0,no,no,no,90073,ITP,WHOI,Federov,North
2013-09-18T18:01:26Z,1379527286,2013,18,1,261.751,261.751,84.8724,95.3585,-999.00,-999.00,-999.0,no,no,no,90073,ITP,WHOI,Federov,North
2013-09-18T19:00:28Z,1379530829,2013,19,0,261.792,261.792,84.8766,95.4237,-999.00,-999.00,-999.0,no,no,no,90073,ITP,WHOI,Federov,North
2013-09-18T19:59:31Z,1379534371,2013,20,0,261.833,261.833,84.8801,95.487,-999.00,-999.00,-999.0,no,no,no,90073,ITP,WHOI,Federov,North
2013-09-18T21:00:00Z,1379538000,2013,21,0,261.875,261.875,84.883,95.5386,-999.00,-999.00,-999.0,no,no,no,90073,ITP,WHOI,Federov,North
2013-09-18T22:00:28Z,1379541629,2013,22,0,261.917,261.917,84.8858,95.5737,-999.00,-999.00,-999.0,no,no,no,90073,ITP,WHOI,Federov,North
2013-09-18T23:00:57Z,1379545258,2013,23,0,261.959,261.959,84.8897,95.5948,-999.00,-999.00,-999.0,no,no,no,90073,ITP,WHOI,Federov,North
2013-09-19T00:00:00Z,1379548800,2013,0,0,262.0,262.0,84.8933,95.6086,-999.00,-999.00,-999.0,no,no,no,90073,ITP,WHOI,Federov,North
2013-09-19T01:00:28Z,1379552429,2013,1,0,262.042,262.042,84.8988,95.6229,-999.00,-999.00,-999.0,no,no,no,90073,ITP,WHOI,Federov,North
2013-09-19T02:00:57Z,1379556058,2013,2,1,262.084,262.084,84.9062,95.6525,-999.00,-999.00,-999.0,no,no,no,90073,ITP,WHOI,Federov,North
2013-09-19T03:00:00Z,1379559600,2013,3,0,262.125,262.125,84.9137,95.6888,-999.00,-999.00,-999.0,no,no,no,90073,ITP,WHOI,Federov,North
2013-09-19T04:00:28Z,1379563229,2013,4,0,262.167,262.167,84.9202,95.7311,-999.00,-999.00,-999.0,no,no,no,90073,ITP,WHOI,Federov,North
2013-09-19T05:00:57Z,1379566858,2013,5,0,262.209,262.209,84.9265,95.7915,-999.00,-999.00,-999.0,no,no,no,90073,ITP,WHOI,Federov,North
2013-09-19T06:00:00Z,1379570400,2013,6,0,262.25,262.25,84.9314,95.8471,-999.00,-999.00,-999.0,no,no,no,90073,ITP,WHOI,Federov,North
2013-09-19T07:00:28Z,1379574029,2013,7,0,262.292,262.292,84.9351,95.9122,-999.00,-999.00,-999.0,no,no,no,90073,ITP,WHOI,Federov,North
2013-09-19T08:00:57Z,1379577658,2013,8,0,262.334,262.334,84.9388,95.9722,-999.00,-999.00,-999.0,no,no,no,90073,ITP,WHOI,Federov,North
2013-09-19T09:00:00Z,1379581200,2013,9,0,262.375,262.375,84.9429,96.0219,-999.00,-999.00,-999.0,no,no,no,90073,ITP,WHOI,Federov,North
2013-09-19T10:00:28Z,1379584829,2013,10,0,262.417,262.417,84.9461,96.0547,-999.00,-999.00,-999.0,no,no,no,90073,ITP,WHOI,Federov,North
2013-09-19T11:00:57Z,1379588458,2013,11,0,262.459,262.459,84.95,96.0728,-999.00,-999.00,-999.0,no,no,no,90073,ITP,WHOI,Federov,North
2013-09-19T12:00:00Z,1379592000,2013,12,0,262.5,262.5,84.9546,96.0873,-999.00,-999.00,-999.0,no,no,no,90073,ITP,WHOI,Federov,North
2013-09-19T13:00:28Z,1379595629,2013,13,0,262.542,262.542,84.9599,96.1025,-999.00,-999.00,-999.0,no,no,no,90073,ITP,WHOI,Federov,North
2013-09-19T13:59:31Z,1379599171,2013,14,0,262.583,262.583,84.9661,96.1205,-999.00,-999.00,-999.0,no,no,no,90073,ITP,WHOI,Federov,North
2013-09-19T15:00:00Z,1379602800,2013,15,0,262.625,262.625,84.9729,96.1489,-999.00,-999.00,-999.0,no,no,no,90073,ITP,WHOI,Federov,North
2013-09-19T16:00:28Z,1379606429,2013,16,0,262.667,262.667,84.9789,96.1906,-999.00,-999.00,-999.0,no,no,no,90073,ITP,WHOI,Federov,North
2013-09-19T16:59:31Z,1379609971,2013,17,0,262.708,262.708,84.9888,96.2361,-999.00,-999.00,-999.0,no,no,no,90073,ITP,WHOI,Federov,North
2013-09-19T18:00:00Z,1379613600,2013,18,0,262.75,262.75,84.9883,96.2749,-999.00,-999.00,-999.0,no,no,no,90073,ITP,WHOI,Federov,North
2013-09-19T19:00:28Z,1379617229,2013,19,0,262.792,262.792,84.9921,96.2991,-999.00,-999.00,-999.0,no,no,no,90073,ITP,WHOI,Federov,North
2013-09-19T20:00:57Z,1379620858,2013,20,0,262.834,262.834,84.9954,96.3209,-999.00,-999.00,-999.0,no,no,no,90073,ITP,WHOI,Federov,North
2013-09-19T21:00:00Z,1379624400,2013,21,0,262.875,262.875,84.9983,96.3422,-999.00,-999.00,-999.0,no,no,no,90073,ITP,WHOI,Federov,North
2013-09-19T22:00:28Z,1379628029,2013,22,0,262.917,262.917,85.0115,96.3645,-999.00,-999.00,-999.0,no,no,no,90073,ITP,WHOI,Federov,North
2013-09-19T23:00:57Z,1379631658,2013,23,0,262.959,262.959,85.004,96.3804,-999.00,-999.00,-999.0,no,no,no,90073,ITP,WHOI,Federov,North
2013-09-20T00:00:00Z,1379635200,2013,0,0,263.0,263.0,85.007,96.3887,-999.00,-999.00,-999.0,no,no,no,90073,ITP,WHOI,Federov,North
2013-09-20T01:00:28Z,1379638829,2013,1,0,263.042,263.042,85.01,96.4026,-999.00,-999.00,-999.0,no,no,no,90073,ITP,WHOI,Federov,North
2013-09-20T02:00:57Z,1379642458,2013,2,0,263.084,263.084,85.0136,96.4246,-999.00,-999.00,-999.0,no,no,no,90073,ITP,WHOI,Federov,North
2013-09-20T03:00:00Z,1379646000,2013,3,0,263.125,263.125,85.0277,96.4471,-999.00,-999.00,-999.0,no,no,no,90073,ITP,WHOI,Federov,North
2013-09-20T04:00:28Z,1379649629,2013,4,0,263.167,263.167,85.0217,96.4765,-999.00,-999.00,-999.0,no,no,no,90073,ITP,WHOI,Federov,North
2013-09-20T05:00:57Z,1379653258,2013,5,0,263.209,263.209,85.0249,96.5072,-999.00,-999.00,-999.0,no,no,no,90073,ITP,WHOI,Federov,North
2013-09-20T06:00:00Z,1379656800,2013,6,0,263.25,263.25,85.0276,96.5372,-999.00,-999.00,-999.0,no,no,no,90073,ITP,WHOI,Federov,North
2013-09-20T07:00:28Z,1379660429,2013,7,0,263.292,263.292,85.0301,96.5647,-999.00,-999.00,-999.0,no,no,no,90073,ITP,WHOI,Federov,North
2013-09-20T08:00:57Z,1379664058,2013,8,0,263.334,263.334,85.0317,96.5963,-999.00,-999.00,-999.0,no,no,no,90073,ITP,WHOI,Federov,North
2013-09-20T09:00:00Z,1379667600,2013,9,0,263.375,263.375,85.0327,96.6361,-999.00,-999.00,-999.0,no,no,no,90073,ITP,WHOI,Federov,North
2013-09-20T10:00:28Z,1379671229,2013,10,0,263.417,263.417,85.0333,96.6771,-999.00,-999.00,-999.0,no,no,no,90073,ITP,WHOI,Federov,North
2013-09-20T11:00:57Z,1379674858,2013,11,0,263.459,263.459,85.0377,96.7022,-999.00,-999.00,-999.0,no,no,no,90073,ITP,WHOI,Federov,North
2013-09-20T12:00:00Z,1379678400,2013,12,0,263.5,263.5,85.033,96.7307,-999.00,-999.00,-999.0,no,no,no,90073,ITP,WHOI,Federov,North
2013-09-20T13:00:28Z,1379682029,2013,13,0,263.542,263.542,85.0323,96.7614,-999.00,-999.00,-999.0,no,no,no,90073,ITP,WHOI,Federov,North
2013-09-20T14:00:57Z,1379685658,2013,14,0,263.584,263.584,85.032,96.7909,-999.00,-999.00,-999.0,no,no,no,90073,ITP,WHOI,Federov,North
2013-09-20T15:00:00Z,1379689200,2013,15,0,263.625,263.625,85.0319,96.8207,-999.00,-999.00,-999.0,no,no,no,90073,ITP,WHOI,Federov,North
2013-09-20T16:00:28Z,1379692829,2013,16,0,263.667,263.667,85.0328,96.8571,-999.00,-999.00,-999.0,no,no,no,90073,ITP,WHOI,Federov,North
2013-09-20T16:59:31Z,1379696371,2013,17,0,263.708,263.708,85.0404,96.8966,-999.00,-999.00,-999.0,no,no,no,90073,ITP,WHOI,Federov,North
2013-09-20T18:00:00Z,1379700000,2013,18,0,263.75,263.75,85.0355,96.9358,-999.00,-999.00,-999.0,no,no,no,90073,ITP,WHOI,Federov,North
2013-09-20T19:00:28Z,1379703629,2013,19,0,263.792,263.792,85.0363,96.9814,-999.00,-999.00,-999.0,no,no,no,90073,ITP,WHOI,Federov,North
2013-09-20T20:00:57Z,1379707258,2013,20,0,263.834,263.834,85.0363,97.0303,-999.00,-999.00,-999.0,no,no,no,90073,ITP,WHOI,Federov,North
2013-09-20T21:00:00Z,1379710800,2013,21,0,263.875,263.875,85.0351,97.0818,-999.00,-999.00,-999.0,no,no,no,90073,ITP,WHOI,Federov,North
2013-09-20T22:00:28Z,1379714429,2013,22,0,263.917,263.917,85.0326,97.1426,-999.00,-999.00,-999.0,no,no,no,90073,ITP,WHOI,Federov,North
2013-09-20T23:00:57Z,1379718058,2013,23,0,263.959,263.959,85.0293,97.1878,-999.00,-999.00,-999.0,no,no,no,90073,ITP,WHOI,Federov,North
2013-09-21T00:00:00Z,1379721600,2013,0,0,264.0,264.0,85.0257,97.2391,-999.00,-999.00,-999.0,no,no,no,90073,ITP,WHOI,Federov,North
2013-09-21T01:00:28Z,1379725229,2013,1,0,264.042,264.042,85.0213,97.2814,-999.00,-999.00,-999.0,no,no,no,90073,ITP,WHOI,Federov,North
2013-09-21T02:00:57Z,1379728858,2013,2,0,264.084,264.084,85.0239,97.3238,-999.00,-999.00,-999.0,no,no,no,90073,ITP,WHOI,Federov,North
2013-09-21T03:00:00Z,1379732400,2013,3,0,264.125,264.125,85.0139,97.3706,-999.00,-999.00,-999.0,no,no,no,90073,ITP,WHOI,Federov,North
2013-09-21T04:00:28Z,1379736029,2013,4,0,264.167,264.167,85.0117,97.4149,-999.00,-999.00,-999.0,no,no,no,90073,ITP,WHOI,Federov,North
2013-09-21T05:00:57Z,1379739658,2013,5,0,264.209,264.209,85.0097,97.465,-999.00,-999.00,-999.0,no,no,no,90073,ITP,WHOI,Federov,North
2013-09-21T06:00:00Z,1379743200,2013,6,0,264.25,264.25,85.0079,97.5243,-999.00,-999.00,-999.0,no,no,no,90073,ITP,WHOI,Federov,North
2013-09-21T07:00:28Z,1379746829,2013,7,0,264.292,264.292,85.0059,97.5724,-999.00,-999.00,-999.0,no,no,no,90073,ITP,WHOI,Federov,North
2013-09-21T08:00:57Z,1379750458,2013,8,0,264.334,264.334,85.0031,97.6383,-999.00,-999.00,-999.0,no,no,no,90073,ITP,WHOI,Federov,North
2013-09-21T09:00:00Z,1379754000,2013,9,0,264.375,264.375,84.9994,97.7073,-999.00,-999.00,-999.0,no,no,no,90073,ITP,WHOI,Federov,North
2013-09-21T10:00:28Z,1379757629,2013,10,0,264.417,264.417,84.9945,97.7801,-999.00,-999.00,-999.0,no,no,no,90073,ITP,WHOI,Federov,North
2013-09-21T11:00:57Z,1379761258,2013,11,0,264.459,264.459,84.9896,97.8447,-999.00,-999.00,-999.0,no,no,no,90073,ITP,WHOI,Federov,North
2013-09-21T12:00:00Z,1379764800,2013,12,0,264.5,264.5,84.9856,97.9047,-999.00,-999.00,-999.0,no,no,no,90073,ITP,WHOI,Federov,North
2013-09-21T13:00:28Z,1379768429,2013,13,0,264.542,264.542,84.9823,97.9697,-999.00,-999.00,-999.0,no,no,no,90073,ITP,WHOI,Federov,North
2013-09-21T14:00:57Z,1379772058,2013,14,0,264.584,264.584,84.9791,98.0368,-999.00,-999.00,-999.0,no,no,no,90073,ITP,WHOI,Federov,North
2013-09-21T15:00:00Z,1379775600,2013,15,0,264.625,264.625,84.9763,98.1071,-999.00,-999.00,-999.0,no,no,no,90073,ITP,WHOI,Federov,North
2013-09-21T16:00:28Z,1379779229,2013,16,0,264.667,264.667,84.9731,98.1851,-999.00,-999.00,-999.0,no,no,no,90073,ITP,WHOI,Federov,North
2013-09-21T17:00:57Z,1379782858,2013,17,0,264.709,264.709,84.9692,98.2623,-999.00,-999.00,-999.0,no,no,no,90073,ITP,WHOI,Federov,North
2013-09-21T18:00:00Z,1379786400,2013,18,0,264.75,264.75,84.9648,98.3463,-999.00,-999.00,-999.0,no,no,no,90073,ITP,WHOI,Federov,North
2013-09-21T19:00:28Z,1379790029,2013,19,0,264.792,264.792,84.9597,98.4061,-999.00,-999.00,-999.0,no,no,no,90073,ITP,WHOI,Federov,North
2013-09-21T20:00:57Z,1379793658,2013,20,0,264.834,264.834,84.9537,98.4727,-999.00,-999.00,-999.0,no,no,no,90073,ITP,WHOI,Federov,North
2013-09-21T21:00:00Z,1379797200,2013,21,0,264.875,264.875,84.9472,98.5312,-999.00,-999.00,-999.0,no,no,no,90073,ITP,WHOI,Federov,North
2013-09-21T22:00:28Z,1379800829,2013,22,0,264.917,264.917,84.9399,98.5862,-999.00,-999.00,-999.0,no,no,no,90073,ITP,WHOI,Federov,North
2013-09-21T23:00:57Z,1379804458,2013,23,0,264.959,264.959,84.9325,98.6319,-999.00,-999.00,-999.0,no,no,no,90073,ITP,WHOI,Federov,North
2013-09-22T00:00:00Z,1379808000,2013,0,0,265.0,265.0,84.9249,98.672,-999.00,-999.00,-999.0,no,no,no,90073,ITP,WHOI,Federov,North
2013-09-22T01:01:55Z,1379811715,2013,1,1,265.043,265.043,84.9253,98.7094,-999.00,-999.00,-999.0,no,no,no,90073,ITP,WHOI,Federov,North
2013-09-22T02:02:24Z,1379815344,2013,2,2,265.085,265.085,84.9105,98.7486,-999.00,-999.00,-999.0,no,no,no,90073,ITP,WHOI,Federov,North
2013-09-22T03:00:00Z,1379818800,2013,3,0,265.125,265.125,84.9042,98.7878,-999.00,-999.00,-999.0,no,no,no,90073,ITP,WHOI,Federov,North
2013-09-22T04:00:28Z,1379822429,2013,4,0,265.167,265.167,84.8984,98.8326,-999.00,-999.00,-999.0,no,no,no,90073,ITP,WHOI,Federov,North
2013-09-22T05:00:57Z,1379826058,2013,5,0,265.209,265.209,84.8929,98.8794,-999.00,-999.00,-999.0,no,no,no,90073,ITP,WHOI,Federov,North
2013-09-22T06:00:00Z,1379829600,2013,6,0,265.25,265.25,84.8873,98.9297,-999.00,-999.00,-999.0,no,no,no,90073,ITP,WHOI,Federov,North
2013-09-22T07:00:28Z,1379833229,2013,7,0,265.292,265.292,84.8814,98.9888,-999.00,-999.00,-999.0,no,no,no,90073,ITP,WHOI,Federov,North
2013-09-22T08:00:57Z,1379836858,2013,8,0,265.334,265.334,84.8749,99.0434,-999.00,-999.00,-999.0,no,no,no,90073,ITP,WHOI,Federov,North
2013-09-22T09:00:00Z,1379840400,2013,9,0,265.375,265.375,84.8723,99.1028,-999.00,-999.00,-999.0,no,no,no,90073,ITP,WHOI,Federov,North
2013-09-22T10:00:28Z,1379844029,2013,10,0,265.417,265.417,84.8586,99.1548,-999.00,-999.00,-999.0,no,no,no,90073,ITP,WHOI,Federov,North
2013-09-22T11:00:57Z,1379847658,2013,11,0,265.459,265.459,84.8497,99.1951,-999.00,-999.00,-999.0,no,no,no,90073,ITP,WHOI,Federov,North
2013-09-22T12:00:00Z,1379851200,2013,12,0,265.5,265.5,84.8408,99.2269,-999.00,-999.00,-999.0,no,no,no,90073,ITP,WHOI,Federov,North
2013-09-22T13:00:28Z,1379854829,2013,13,0,265.542,265.542,84.8322,99.2582,-999.00,-999.00,-999.0,no,no,no,90073,ITP,WHOI,Federov,North
2013-09-22T14:00:57Z,1379858458,2013,14,0,265.584,265.584,84.8242,99.2716,-999.00,-999.00,-999.0,no,no,no,90073,ITP,WHOI,Federov,North
2013-09-22T15:00:00Z,1379862000,2013,15,0,265.625,265.625,84.8164,99.2909,-999.00,-999.00,-999.0,no,no,no,90073,ITP,WHOI,Federov,North
2013-09-22T16:00:28Z,1379865629,2013,16,0,265.667,265.667,84.8094,99.3085,-999.00,-999.00,-999.0,no,no,no,90073,ITP,WHOI,Federov,North
2013-09-22T17:00:57Z,1379869258,2013,17,0,265.709,265.709,84.8034,99.3323,-999.00,-999.00,-999.0,no,no,no,90073,ITP,WHOI,Federov,North
2013-09-22T18:00:00Z,1379872800,2013,18,0,265.75,265.75,84.7976,99.3641,-999.00,-999.00,-999.0,no,no,no,90073,ITP,WHOI,Federov,North
2013-09-22T19:00:28Z,1379876429,2013,19,0,265.792,265.792,84.7921,99.4017,-999.00,-999.00,-999.0,no,no,no,90073,ITP,WHOI,Federov,North
2013-09-22T20:00:57Z,1379880058,2013,20,0,265.834,265.834,84.786,99.4414,-999.00,-999.00,-999.0,no,no,no,90073,ITP,WHOI,Federov,North
2013-09-22T21:00:00Z,1379883600,2013,21,0,265.875,265.875,84.7795,99.4817,-999.00,-999.00,-999.0,no,no,no,90073,ITP,WHOI,Federov,North